Weather History for Worcester, MA

Change the Weather History Date:

Monday, September 2, 2013

  Actual Average Record
Temperature  
Mean Temperature 72 °F 66 °F  
Max Temperature 75 °F 74 °F 99 °F (1953)
Min Temperature 69 °F 58 °F 38 °F (1934)
Degree Days  
Heating Degree Days 0 2  
Month to date heating degree days 0 4  
Since 1 July heating degree days 19 43  
Cooling Degree Days 7 3  
Month to date cooling degree days 13 6  
Year to date cooling degree days 544 432  
Growing Degree Days 22 (Base 50)    
Moisture  
Dew Point 70 °F    
Average Humidity 94    
Maximum Humidity 100    
Minimum Humidity 87    
Precipitation  
Precipitation 0.15 in 0.12 in 1.76 in (1947)
Month to date precipitation 1.76 0.23  
Year to date precipitation 34.78 31.59  
Sea Level Pressure  
Sea Level Pressure 29.82 in    
Wind  
Wind Speed 6 mph (SSW)    
Max Wind Speed 13 mph    
Max Gust Speed 17 mph    
Visibility 5 miles    
Events Fog , Rain , Thunderstorm    
T = Trace of Precipitation, MM = Missing Value Source: NWS Daily Summary

Daily Weather History Graph

Daily Weather History Graph

Search for Another Location

Airport:

Trip Planner

Search our weather history database for the weather conditions in past years. The results will help you decide how hot, cold, wet, or windy it might be!

Date:

Astronomy

Sep. 02, 2013 Rise Set
Actual Time 6:14 AM EDT 7:19 PM EDT
Civil Twilight 5:45 AM EDT 7:48 PM EDT
Nautical Twilight 5:10 AM EDT 8:22 PM EDT
Astronomical Twilight 4:34 AM EDT 8:58 PM EDT
Moon 3:26 AM EDT (9/2) 5:32 PM EDT (9/2)
Length of Visible Light 14h 02m
Length of Day
13h 05m
Waning Crescent, 8% of the Moon is Illuminated
Sep 2
Waning Crescent
Sep 5
New
Sep 12
First Quarter
Sep 19
Full
Sep 26
Last Quarter

Hourly Weather History & Observations

Time (EDT) Temp. Dew Point Humidity Pressure Visibility Wind Dir Wind Speed Gust Speed Precip Events Conditions
12:54 AM 70.0 °F 70.0 °F 100% 29.88 in 5.0 mi South 6.9 mph - N/A   Overcast
1:20 AM 70.0 °F 70.0 °F 100% 29.88 in 2.5 mi South 6.9 mph - N/A   Overcast
1:37 AM 70.0 °F 69.1 °F 97% 29.88 in 4.0 mi South 9.2 mph - N/A   Overcast
1:54 AM 70.0 °F 69.1 °F 97% 29.86 in 4.0 mi South 10.4 mph - N/A   Overcast
2:12 AM 70.0 °F 69.1 °F 97% 29.87 in 2.0 mi South 9.2 mph - N/A   Overcast
2:37 AM 70.0 °F 69.1 °F 97% 29.86 in 3.0 mi SSW 6.9 mph - N/A   Overcast
2:54 AM 70.0 °F 69.1 °F 97% 29.85 in 4.0 mi SSW 8.1 mph - N/A   Overcast
3:13 AM 70.0 °F 69.1 °F 97% 29.86 in 1.8 mi South 8.1 mph - N/A   Overcast
3:28 AM 70.0 °F 69.1 °F 97% 29.85 in 0.8 mi South 8.1 mph - 0.00 in Rain Light Rain
3:54 AM 70.0 °F 70.0 °F 100% 29.84 in 0.5 mi South 5.8 mph - 0.00 in Fog Fog
4:43 AM 70.0 °F 70.0 °F 100% 29.85 in 0.2 mi South 5.8 mph - N/A Fog Fog
4:54 AM 70.0 °F 70.0 °F 100% 29.83 in 0.5 mi South 5.8 mph - N/A Fog Fog
5:10 AM 70.0 °F 70.0 °F 100% 29.85 in 1.5 mi South 6.9 mph - N/A   Overcast
5:24 AM 70.0 °F 70.0 °F 100% 29.86 in 0.8 mi South 8.1 mph - N/A   Mist
5:38 AM 70.0 °F 70.0 °F 100% 29.85 in 1.0 mi South 6.9 mph - 0.02 in Rain Light Rain
5:54 AM 70.0 °F 70.0 °F 100% 29.84 in 0.5 mi South 9.2 mph - 0.03 in Fog Fog
6:05 AM 70.0 °F 70.0 °F 100% 29.85 in 2.0 mi South 6.9 mph - N/A   Overcast
6:13 AM 70.0 °F 69.1 °F 97% 29.85 in 6.0 mi South 5.8 mph - N/A   Overcast
6:28 AM 70.0 °F 70.0 °F 100% 29.86 in 1.0 mi SSW 6.9 mph - N/A   Overcast
6:54 AM 70.0 °F 70.0 °F 100% 29.85 in 0.8 mi SSW 8.1 mph - 0.00 in Rain Light Rain
7:54 AM 70.0 °F 69.1 °F 97% 29.85 in 2.0 mi South 8.1 mph - 0.00 in   Overcast
8:18 AM 70.0 °F 69.1 °F 97% 29.85 in 10.0 mi South 6.9 mph - N/A   Overcast
8:54 AM 71.1 °F 69.1 °F 93% 29.83 in 10.0 mi South 8.1 mph - N/A   Mostly Cloudy
9:01 AM 71.1 °F 69.1 °F 93% 29.84 in 10.0 mi South 8.1 mph - N/A   Mostly Cloudy
9:54 AM 71.1 °F 69.1 °F 93% 29.84 in 10.0 mi SSW 8.1 mph - N/A   Overcast
10:44 AM 71.1 °F 70.0 °F 96% 29.86 in 10.0 mi South 8.1 mph - N/A Thunderstorm Thunderstorm
10:54 AM 72.0 °F 70.0 °F 93% 29.84 in 10.0 mi South 5.8 mph - N/A Thunderstorm Thunderstorm
11:06 AM 73.0 °F 71.1 °F 93% 29.85 in 10.0 mi SSE 8.1 mph - N/A Thunderstorm Overcast
11:43 AM 73.9 °F 71.1 °F 91% 29.84 in 10.0 mi South 6.9 mph - 0.00 in Rain Light Rain
11:54 AM 73.9 °F 70.0 °F 87% 29.83 in 10.0 mi SSW 8.1 mph - 0.00 in   Overcast
12:06 PM 73.0 °F 71.1 °F 93% 29.84 in 6.0 mi SSW 9.2 mph - 0.00 in Rain Light Rain
12:32 PM 73.0 °F 71.1 °F 93% 29.83 in 6.0 mi SSW 8.1 mph - 0.01 in Rain , Thunderstorm Rain
12:41 PM 73.0 °F 71.1 °F 93% 29.84 in 4.0 mi SSW 9.2 mph - 0.04 in Rain , Thunderstorm Light Thunderstorms and Rain
12:45 PM 72.0 °F 71.1 °F 97% 29.84 in 7.0 mi SW 8.1 mph - 0.04 in Rain , Thunderstorm Light Thunderstorms and Rain
12:54 PM 72.0 °F 71.1 °F 97% 29.82 in 2.0 mi SSW 6.9 mph - 0.04 in Rain , Thunderstorm Thunderstorms and Rain
12:57 PM 72.0 °F 71.1 °F 97% 29.83 in 1.8 mi SSW 6.9 mph - 0.02 in Rain , Thunderstorm Heavy Thunderstorms and Rain
1:03 PM 72.0 °F 70.0 °F 93% 29.83 in 2.0 mi SSW 6.9 mph - 0.06 in Rain , Thunderstorm Thunderstorms and Rain
1:07 PM 72.0 °F 70.0 °F 93% 29.82 in 3.0 mi SSW 5.8 mph - 0.07 in Rain Light Rain
1:54 PM 73.0 °F 70.0 °F 90% 29.78 in 10.0 mi Variable 5.8 mph - 0.07 in Rain Light Rain
2:19 PM 73.9 °F 72.0 °F 93% 29.80 in 10.0 mi Variable 3.5 mph - 0.01 in   Overcast
2:26 PM 73.9 °F 72.0 °F 93% 29.80 in 10.0 mi Variable 3.5 mph - 0.01 in   Overcast
2:54 PM 73.9 °F 71.1 °F 91% 29.78 in 10.0 mi Variable 3.5 mph - 0.01 in   Scattered Clouds
3:54 PM 75.0 °F 72.0 °F 90% 29.77 in 10.0 mi SW 10.4 mph - N/A   Scattered Clouds
4:06 PM 75.0 °F 71.1 °F 87% 29.78 in 10.0 mi SW 8.1 mph - N/A   Mostly Cloudy
4:37 PM 73.9 °F 70.0 °F 87% 29.77 in 10.0 mi SW 9.2 mph - N/A   Scattered Clouds
4:54 PM 73.0 °F 70.0 °F 90% 29.75 in 10.0 mi SW 9.2 mph - 0.00 in Rain Light Rain
5:54 PM 72.0 °F 70.0 °F 93% 29.75 in 10.0 mi WSW 5.8 mph - 0.00 in   Scattered Clouds
6:11 PM 72.0 °F 70.0 °F 93% 29.76 in 10.0 mi SW 4.6 mph - N/A   Overcast
6:54 PM 72.0 °F 70.0 °F 93% 29.74 in 10.0 mi Variable 4.6 mph - N/A   Overcast
7:02 PM 72.0 °F 70.0 °F 93% 29.76 in 10.0 mi SSW 4.6 mph - N/A   Overcast
7:54 PM 72.0 °F 70.0 °F 93% 29.75 in 10.0 mi Calm Calm - N/A   Overcast
8:54 PM 72.0 °F 70.0 °F 93% 29.76 in 9.0 mi West 3.5 mph - N/A   Overcast
9:07 PM 72.0 °F 70.0 °F 93% 29.78 in 10.0 mi Calm Calm - 0.00 in Rain Light Rain
9:54 PM 70.0 °F 69.1 °F 97% 29.76 in 6.0 mi SSE 5.8 mph - 0.00 in   Clear
10:03 PM 70.0 °F 69.1 °F 97% 29.78 in 6.0 mi South 5.8 mph - N/A   Clear
10:08 PM 70.0 °F 69.1 °F 97% 29.78 in 5.0 mi SSW 4.6 mph - N/A   Partly Cloudy
10:11 PM 70.0 °F 69.1 °F 97% 29.78 in 1.5 mi South 5.8 mph - N/A   Partly Cloudy
10:13 PM 69.1 °F 69.1 °F 100% 29.78 in 0.8 mi South 5.8 mph - N/A   Mist
10:33 PM 69.1 °F 69.1 °F 100% 29.78 in 0.2 mi West 4.6 mph - N/A Fog Fog
10:40 PM 69.1 °F 69.1 °F 100% 29.78 in 0.2 mi West 4.6 mph - N/A Fog Fog
10:54 PM 70.0 °F 70.0 °F 100% 29.77 in 0.5 mi West 5.8 mph - N/A Fog Fog
10:59 PM 70.0 °F 70.0 °F 100% 29.78 in 0.2 mi WSW 4.6 mph - N/A Fog Fog
11:32 PM 70.0 °F 70.0 °F 100% 29.78 in 0.2 mi WSW 5.8 mph - N/A Fog Fog
11:43 PM 70.0 °F 70.0 °F 100% 29.79 in 0.8 mi WSW 8.1 mph - N/A   Overcast
11:47 PM 70.0 °F 70.0 °F 100% 29.79 in 2.0 mi WSW 8.1 mph - N/A   Overcast
11:54 PM 70.0 °F 70.0 °F 100% 29.78 in 5.0 mi WSW 8.1 mph - N/A   Mostly Cloudy